Погода в Мохсоголлохе

Россия / Республика Саха (Якутия)     61°23′50″N   128°56′28″E
темп.,
°C
ветер,
м/с
пор.,
м/с
влажн.,
%
обл.,
%
осадки,
мм/ч
давл.,
гПа
погр.,
м
27 февраля, сб
сб2700:00−32всв2210096 0.0 103131
03:00−32всв2210098 0.0 103028
06:00−32всв249991 0.0 102989
09:00−30всв259796 0.0 1028157
12:00−25всв359698 0.0 1026275
15:00−22всв369599 0.0 1022442
18:00−23всв3896100 0.0 1021302
21:00−24св3697100 0.0 1019252
28 февраля, вс
вс2800:00−25ссв2597100 0.1 1018250
03:00−26ссз2496100 0.1 1016225
06:00−27сз2495100 0.0 1018173
09:00−25зсз3791100 0.0 1019482
12:00−23зсз4791100 0.1 1021715
15:00−24з5894100 0.5 1022723
18:00−25з3995100 0.4 1024779
21:00−26з3897100 0.6 1026746
1 марта, пн
пн100:00−26з3996100 0.2 1026738
03:00−27з3895100 0.3 1026672
06:00−27з3994100 0.1 1026648
09:00−27з4892100 0.2 1027750
12:00−25зсз4787100 0.1 1027929
15:00−25зсз4686100 0.2 1027957
18:00−26з3793100 0.1 1027438
21:00−28з2794100 0.1 1027235
2 марта, вт
вт200:00−30з2296100 0.0 102745
03:00−31з2296100 0.0 102722
06:00−32зюз229699 0.0 102820
09:00−32зюз139697 0.0 102799
12:00−27з238694 0.0 1026578
15:00−25зсз138297 0.0 1026825
18:00−30сз1194100 0.0 102619
21:00−33ссз119693 0.0 102619
3 марта, ср
ср300:00−34зсз119887 0.0 102619
03:00−33сз119694 0.0 102519
06:00−34сз1196100 0.0 102519
09:00−32зсз1195100 0.0 102443
12:00−27ссз1188100 0.0 1022390
15:00−26ссз1284100 0.0 1021687
18:00−28ссз2296100 0.1 102046
21:00−30сз2396100 0.1 1020115